星链-35962(STARLINK-35962)

导读

STARLINK-35962是美国SpaceX星链互联网星座的组成卫星,于2025年11月19日发射升空,归属美国所有。星链项目旨在构建全球覆盖的低轨卫星互联网,这颗卫星承担着为偏远地区、海洋空域提供高速互联网接入服务的任务,进一步完善星链星座的全球网络覆盖密度,推动低轨卫星通信组网进程。

基本信息
目录编号:
66518
目录名称:
STARLINK-35962
国际标识:
2025-265C
轨道中心:
EARTH
卫星名称:
星链-35962
卫星全名:
星链-35962(STARLINK-35962)
卫星状态:
在轨 (已飞行290 天)
发射日期:
2025-11-19 UTC
国别 :
美国 (US)
星等 :
--
轨道信息
数据来源 国际轨道数据
星历时间: 2026-09-05T14:21:03+0800
15小时前
查看轨道信息
半长轴: 6861.181km
偏心率: 0.0001149
轨道倾角: 43.003°
近地点辐角 268.750°
升交点赤经 344.093°
平近点角 91.322°
近地点: 482.255km
远地点: 483.833km
周期: 94.267分钟
每日圈数: 15.275819
详细信息
固有亮度:
5
最大亮度:
2.5
卫星平台:
Starlink V1.0
覆盖范围:
全球
运营商:
太空探索技术公司
运营商所在国:
美国
制造商(研发单位):
太空探索技术公司
制造商所在国:
美国
使用方式:
暂无
卫星简介
Starlink 计划是 SpaceX 推出的全球卫星互联网项目,通过发射低轨道卫星,为全球尤其是偏远地区提供高速、低延迟的互联网服务。自 2019 年起,Starlink 已部署数千颗卫星,旨在缩小全球数字鸿沟,推动互联网普及。该项目还为军事、航空等行业提供通信支持,带来广泛经济效益。
2D轨道图
3D轨道图
轨道高度分析图
轨道倾角分析图
轨道综合分析图
查看轨道综合分析图
交会数据列表
事件ID 空间交会对象 最接近时刻(TCA) 交会距离 交会风险概率(CRP) 交会风险指数(CRI) 操作
CDM_260908-053805-600306-651821
2026-09-08T
05:38:21+0000
0.567 km
远距离
1.177579E-4 高风险 0.76
CDM_260908-040405-600306-651821
2026-09-08T
04:04:12+0000
1.678 km
极远距离
3.582468E-6 低风险 0.46
CDM_260901-050205-386706-651821
2026-09-01T
05:02:40+0000
2.783 km
极远距离
1.267642E-6 低风险 0.37